Météorologie Historique pour La Crosse, WI

Change the Weather History Date:

jeudi, mai 17, 2012

  Actual Average Record
Temperature  
Température moyenne 62 ° F 60 ° F  
Température maximum 76 ° F 71 ° F 92 ° F (1998)
Température minimum 47 ° F 49 ° F 29 ° F (1925)
Degree Days  
Degrés-jours de chauffage 3 6  
Month to date heating degree days 75 139  
Since 1 July heating degree days 5738 7091  
Cooling Degree Days 0 1  
Month to date cooling degree days 23 15  
Year to date cooling degree days 46 22  
Growing Degree Days 10 (Base 50)    
Moisture  
Point de rosée 41 ° F    
Average Humidity 56    
Maximum Humidity 82    
Minimum Humidity 29    
Précipitation  
Précipitation T pouce 0.11 pouce 2.87 pouce (2000)
Month to date precipitation 2.23 1.89  
Year to date precipitation 9.83 9.44  
Neige  
Neige 0.00 pouce 0.00 pouce 0.00 pouce (2002)
Month to date snowfall 0.0 0.1  
Since 1 July snowfall 21.5 43.4  
Épaisseur de neige 0.00 pouce    
Pression au niveau de la mer  
Pression au niveau de la mer 30.00 pouce    
Vent  
Vitesse du vent 13 mph (SSE)    
Vitesse maximum du vent 26 mph    
Max Gust Speed 33 mph    
Visibilité 10 Miles terrestres    
Evénements Pluie    
T = Trace of Precipitation, MM = Missing Value Source: NWS Daily Summary

Daily Weather History Graph

Daily Weather History Graph

Search for Another Location

Airport:

Trip Planner

Search our weather history database for the weather conditions in past years. The results will help you decide how hot, cold, wet, or windy it might be!

Date:

Astronomie

May. 17, 2012 Lever Coucher
Temps réel 05:36 CDT 20:26 CDT
Crépuscule civil 05:03 CDT 21:00 CDT
Crépuscule nautique 04:20 CDT 21:43 CDT
Crépuscule astronomique 03:31 CDT 22:33 CDT
Lune 03:40 CDT (5/17) 17:35 CDT (5/17)
Durée de lumière visible 15h 57m
Longueur du jour
14h 50m
Lune descendante, 9% of the Moon is Illuminated
mai 17
Lune descendante
mai 20
Nouveau
mai 28
Premier quartier
juin 4
Pleine lune
juin 11
Dernier quartier

Hourly Weather History & Observations

Heure (CDT) Température Point de rosée Humidité Pression Visibilité Wind Dir Vitesse du vent Vitesse des rafales Precip Evénements Conditions météo
12:53 AM 51.1 ° F 42.1 ° F 71% 30.06 pouce 10.0 mi ESE 5.8 mph - N/A   Ciel dégagé
1:53 AM 50.0 ° F 42.1 ° F 74% 30.06 pouce 10.0 mi ESE 5.8 mph - N/A   Ciel dégagé
2:53 AM 48.0 ° F 42.1 ° F 80% 30.06 pouce 10.0 mi SE 6.9 mph - N/A   Ciel dégagé
3:53 AM 48.0 ° F 42.1 ° F 80% 30.06 pouce 10.0 mi ESE 6.9 mph - N/A   Ciel dégagé
4:53 AM 46.9 ° F 41.0 ° F 80% 30.05 pouce 10.0 mi ESE 6.9 mph - N/A   Ciel dégagé
5:53 AM 48.0 ° F 41.0 ° F 77% 30.05 pouce 10.0 mi ESE 9.2 mph - N/A   Ciel dégagé
6:53 AM 52.0 ° F 42.1 ° F 69% 30.09 pouce 10.0 mi ESE 5.8 mph - N/A   Ciel dégagé
7:53 AM 55.9 ° F 42.1 ° F 60% 30.10 pouce 10.0 mi SSE 6.9 mph - N/A   Ciel dégagé
8:53 AM 59.0 ° F 42.1 ° F 53% 30.09 pouce 10.0 mi Sud 15.0 mph 19.6 mph N/A   Ciel dégagé
9:53 AM 62.1 ° F 39.9 ° F 44% 30.08 pouce 10.0 mi Sud 18.4 mph - N/A   Ciel dégagé
10:53 AM 64.0 ° F 39.9 ° F 41% 30.07 pouce 10.0 mi Sud 16.1 mph 23.0 mph N/A   Partiellement nuageux
11:53 AM 64.0 ° F 42.1 ° F 45% 30.06 pouce 10.0 mi Sud 18.4 mph 21.9 mph 0.00 pouce Pluie Pluie fine
12:53 PM 66.9 ° F 42.1 ° F 40% 29.99 pouce 10.0 mi SSE 15.0 mph 24.2 mph 0.00 pouce   Partiellement nuageux
1:53 PM 71.1 ° F 42.1 ° F 35% 29.97 pouce 10.0 mi Sud 19.6 mph 26.5 mph N/A   Ciel dégagé
2:53 PM 73.0 ° F 39.9 ° F 30% 29.95 pouce 9.0 mi Sud 18.4 mph 29.9 mph N/A   Ciel dégagé
3:53 PM 75.9 ° F 41.0 ° F 29% 29.93 pouce 10.0 mi Sud 23.0 mph 31.1 mph N/A   Ciel dégagé
4:53 PM 73.9 ° F 42.1 ° F 32% 29.92 pouce 10.0 mi Sud 15.0 mph 26.5 mph N/A   Ciel dégagé
5:53 PM 75.9 ° F 43.0 ° F 31% 29.91 pouce 10.0 mi Sud 11.5 mph - N/A   Ciel dégagé
6:53 PM 73.9 ° F 41.0 ° F 30% 29.90 pouce 10.0 mi SSE 17.3 mph 25.3 mph N/A   Ciel dégagé
7:53 PM 72.0 ° F 41.0 ° F 33% 29.89 pouce 10.0 mi SSE 12.7 mph - N/A   Ciel dégagé
8:53 PM 70.0 ° F 37.9 ° F 31% 29.89 pouce 10.0 mi SSE 15.0 mph - N/A   Ciel dégagé
9:53 PM 69.1 ° F 37.9 ° F 32% 29.90 pouce 10.0 mi SSE 9.2 mph - N/A   Ciel dégagé
10:53 PM 66.0 ° F 39.9 ° F 38% 29.90 pouce 10.0 mi Sud 9.2 mph - N/A   Ciel dégagé
11:53 PM 64.0 ° F 44.1 ° F 48% 29.90 pouce 10.0 mi Sud 9.2 mph - N/A   Ciel dégagé